User: anonymous   Login
Location: Muenchen
(48.1800°N, 11.5800°E)
Time: 06:14:46
(UTC+02:00)
Language:

Iridium 37 - Orbit

View from above orbital plane
View from above orbital plane
View from above satellite
View from above satellite

Ground track
Ground track

The orbit data is extracted from the following two-line orbital elements,

1 24968U 97056D   16121.49871120  .00000026  00000-0  20627-5 0  9999
2 24968  86.3941 131.4144 0002377  88.6253 271.5215 14.34218798973381
Epoch (UTC): 30 April 2016 11:58:08
Eccentricity: 0.0002377
inclination: 86.3941°
perigee height: 776 km
apogee height: 779 km
right ascension of ascending node: 131.4144°
argument of perigee: 88.6253°
revolutions per day: 14.34218798
mean anomaly at epoch: 271.5215°
orbit number at epoch: 97338

The dashed part of the orbit path shows where the satellite is in the earth's shadow,  

DLR